THORAD DELTA 1 DEB, 8169

Orbit data source: Space-Track

THORAD DELTA 1 DEB, 8169 is space debris in SSO originally from a launch on Fri, 15 Nov 1974 UTC launched from the Air Force Western Test Range (AFWTR). Debris objects in space refer to the collection of defunct objects orbiting the Earth. Examples of debris include non-operational satellites, rocket bodies, and fragments generated from explosions, collisions, or faulty payload assembly.

Loading next visibility...
Identifier
8169, 1974-089AK
Orbit
SSO
Country
Flag of USUS
Related business
Manufacturer
Unknown
Mission
Spacecraft
Bus & Motor
Unknown
Mass
Unknown
Launch date (UTC)
1974-11-15 (52 years ago)
Launch vehicle
Unknown
Launch site
Air Force Western Test Range (AFWTR)
Object type
Payload
Rocket body
Debris
Shape & HBR
Unknown shape, 0.1 m
Radar Cross Section
Medium (>0.1 m² and <1 m²)

Expand to show TLE details & history
Last TLE update: 1 day ago

TLE from 1 day ago
0 THORAD DELTA 1 DEB
1 08169U 74089AK  26174.96874568  .00002153  00000-0  76540-2 0  9990
2 08169 102.5112 167.7983 0126774 130.1784 254.4582 12.94397595401650
Epoch: 2026-06-23T23:14Z
TLE epoch observation values (Epoch: 2026-06-23T23:14:59.626Z)
Latitude
22.67882°
Longitude
-98.37667°
Altitude
1,313.758 km
Speed
7.189 km/s
True Right ascension
10h 50m 01s
True Declination
22° 33' 56"
Sunlit
Object was in daylight at epoch
Visualization orbit readout
Latitude
Unknown
Longitude
Unknown
Altitude
Unknown
Speed
Unknown
Apparent Right ascension
Unknown
Apparent Declination
Unknown
Sunlit
N/A
Visualization observer readout
Local Sidereal Time
10:47:43
Azimuth
Unknown
Elevation
Unknown
Doppler factor
Unknown
Orbital elements
Apogee altitude
1,378.762 km
Perigee altitude
1,184.549 km
Semi-major axis
7,659.792 km
Eccentricity
0.01268
Inclination
102.5112°
RAAN
167.7983°
Arg. of periapsis
130.1784°
True anomaly
253.06465°
Mean anomaly
254.4582°
Eccentric anomaly
253.76082°
Mean motion
3.23756 °/min
Orbital period
111.19 mins
BSTAR
0.007654
Loading maneuver chart data...
Computing Atmospheric mass density...

Documentation

Showing up to 5 results
|